Regional Weather Roundup
Issued by NWS Memphis, TN

Home | Current Version | Previous Version | Text Only | Print | Product List | Glossary On
Versions: 1 2 3 4 5 6 7 8 9 10 11 12 13 14 15 16 17 18 19 20 21 22 23 24 25 26 27 28 29 30 31 32 33 34 35 36 37 38 39 40 41 42 43 44 45 46 47 48 49 50
000
ASUS44 KMEG 161310
RWRMEG
MEMPHIS CWA HOURLY WEATHER ROUNDUP
NATIONAL WEATHER SERVICE MEMPHIS TN
800 AM CDT WED AUG 16 2017

...WEST TENNESSEE...

CITY           SKY/WX    TMP DP  RH WIND       PRES   REMARKS
MEMPHIS INTL   CLOUDY    78  75  90 S8        30.02R
NWS MEMPHIS      N/A     77 N/A N/A MISG        N/A
JACKSON        MOSUNNY   77  76  96 S7        30.03R
COVINGTON      CLOUDY    77  75  94 SW10      30.01R
LEXINGTON      CLOUDY    75  75 100 S9        30.04R
SELMER         CLOUDY    75  73  94 VRB3      30.05R
SAVANNAH       CLOUDY    77  75  94 S7        30.04S
DYERSBURG      MOSUNNY   77  75  93 S7        30.01R
UNION CITY     MOSUNNY   77  75  94 S9        30.00R
PARIS          CLOUDY    75  75 100 S6        30.01S


...EASTERN ARKANSAS...

CITY           SKY/WX    TMP DP  RH WIND       PRES   REMARKS
JONESBORO      CLOUDY    76  76 100 S7        29.98R
WEST MEMPHIS   CLOUDY    77  77 100 S7        30.00R
BATESVILLE     CLOUDY    77  73  88 S5        29.98R
NEWPORT        CLOUDY    75  75 100 SW8       29.98R
WALNUT RIDGE   CLOUDY    75  73  94 S9        29.97R
BLYTHEVILLE    CLOUDY    78  76  93 S9        29.99R
NW BLYTHEVILLE PTSUNNY   79  73  83 S12       29.99
SEARCY           N/A    N/A N/A N/A MISG        N/A
PINE BLUFF     CLOUDY    78  75  90 S9        30.00R
MONTICELLO     CLOUDY    78  75  90 SW7       30.02R


...NORTH MISSISSIPPI...

CITY           SKY/WX    TMP DP  RH WIND       PRES   REMARKS
TUPELO         CLOUDY    76  72  87 SE3       30.06R
OXFORD           N/A    N/A N/A N/A MISG        N/A
BATESVILLE     CLOUDY    76  74  92 S7        30.04R
OLIVE BRANCH   CLOUDY   N/A N/A N/A S6        29.85F
TUNICA           N/A     75  73  94 S7        30.02R
CLARKSDALE       N/A     79  79 100 S9        30.02R
CORINTH        CLOUDY    77  73  88 CALM      30.04S
GREENWOOD      CLOUDY    76  75  97 S7        30.04R
COLUMBUS       CLOUDY    76  76 100 CALM      30.06R
STARKVILLE     CLOUDY    73  72  94 SW6       30.08R
GOLDEN TRIANGL PTSUNNY   75  70  83 S7        30.02R


...SOUTHEAST MISSOURI...

CITY           SKY/WX    TMP DP  RH WIND       PRES   REMARKS
KENNETT        CLOUDY    77  77 100 VRB6      29.97R FOG
MALDEN         CLOUDY    77  73  88 S8        29.98R
WEST PLAINS    CLOUDY    75  73  93 S7        29.99R FOG
POPLAR BLUFF   PTSUNNY   75  74  96 CALM      29.96R
CAPE GIRARDEAU PTSUNNY   76  73  91 S6        29.97R


...NORTHWEST ALABAMA...

CITY           SKY/WX    TMP DP  RH WIND       PRES   REMARKS
MUSCLE SHOALS  CLOUDY    76  72  87 S5        30.08R


...MIDDLE TENNESSEE...

CITY           SKY/WX    TMP DP  RH WIND       PRES   REMARKS
NASHVILLE      PTSUNNY   75  72  90 S8        30.06F
CLARKSVILLE    PTSUNNY   76  72  87 S5        30.03S
COLUMBIA       MOSUNNY   75  75 100 S5        30.04S


...WESTERN KENTUCKY...

CITY           SKY/WX    TMP DP  RH WIND       PRES   REMARKS
PADUCAH        CLOUDY    77  73  87 S9        29.98S
FORT CAMPBELL  MOSUNNY   76  73  88 S6        30.03R


...CENTRAL ARKANSAS...

CITY           SKY/WX    TMP DP  RH WIND       PRES   REMARKS
LITTLE ROCK    CLOUDY    77  77 100 S8        29.98R FOG


SKY/WX REPORTED AS FAIR MEANS FEW OR NO CLOUDS BELOW
12 THOUSAND FEET.




USA.gov is the U.S. government's official web portal to all federal, state and local government web resources and services.